Madrid, Spain

12:34 PM CET on November 23, 2017 (GMT +0100)
Madrid-Barajas Airport

Weather History for LEMD - July, 2013

Change the Weather History Date:

Monday, July 8, 2013

  Actual Average Record
Temperature  
Mean Temperature 83 °F -  
Max Temperature 100 °F 88 °F 102 °F (2015)
Min Temperature 66 °F 61 °F 51 °F (1996)
Cooling Degree Days 18    
Growing Degree Days 33 (Base 50)    
Moisture  
Dew Point 43 °F    
Average Humidity 24    
Maximum Humidity 46    
Minimum Humidity 7    
Precipitation  
Precipitation 0.00 in 0.01 in - ()
Sea Level Pressure  
Sea Level Pressure 30.12 in    
Wind  
Wind Speed 5 mph ()    
Max Wind Speed 9 mph    
Max Gust Speed -    
Visibility 16.3 miles    
Events      
Averages and records for this station are not official NWS values.
T = Trace of Precipitation, MM = Missing Value Source: Averaged Metar Reports

Daily Weather History Graph

Daily Weather History Graph

Search for Another Location

Airport or City:

Trip Planner

Search our weather history database for the weather conditions in past years. The results will help you decide how hot, cold, wet, or windy it might be!

Date:

Astronomy

Jul. 08, 2013 Rise Set
Actual Time 6:51 AM CEST 9:46 PM CEST
Civil Twilight 6:19 AM CEST 10:19 PM CEST
Nautical Twilight 5:37 AM CEST 11:00 PM CEST
Astronomical Twilight 4:49 AM CEST 11:48 PM CEST
Moon 7:08 AM CEST (7/8) 9:39 PM CEST (7/8)
Length of Visible Light 16h 00m
Length of Day
14h 54m
New Moon, 0% of the Moon is Illuminated
Jul 8
New Moon
Jul 16
First Quarter
Jul 22
Full
Jul 29
Last Quarter
Aug 6
New

Hourly Weather History & Observations

Time (CEST) Temp. Dew Point Humidity Pressure Visibility Wind Dir Wind Speed Gust Speed Precip Events Conditions
12:00 AM 87.8 °F 44.6 °F 22% 30.12 in - North 9.2 mph - N/A   Clear
12:30 AM 86.0 °F 44.6 °F 23% 30.12 in - NNW 9.2 mph - N/A   Clear
1:00 AM 86.0 °F 44.6 °F 23% 30.12 in - NNW 9.2 mph - N/A   Clear
1:30 AM 80.6 °F 46.4 °F 30% 30.15 in - North 4.6 mph - N/A   Clear
2:00 AM 77 °F 46 °F 23% 30.06 in 19 mi NNE 3.5 mph - -  
2:00 AM 78.8 °F 48.2 °F 34% 30.15 in - NNE 3.5 mph - N/A   Clear
2:30 AM 77.0 °F 48.2 °F 36% 30.15 in - Variable 2.3 mph - N/A   Clear
3:00 AM 78.8 °F 46.4 °F 32% 30.15 in - SE 4.6 mph - N/A   Clear
3:30 AM 77.0 °F 42.8 °F 29% 30.15 in - SE 4.6 mph - N/A   Clear
4:00 AM 77.0 °F 42.8 °F 29% 30.15 in - SE 5.8 mph - N/A   Clear
4:30 AM 77.0 °F 42.8 °F 29% 30.15 in - Variable 2.3 mph - N/A   Clear
5:00 AM 71.6 °F 44.6 °F 38% 30.15 in - North 4.6 mph - N/A   Clear
5:30 AM 71.6 °F 44.6 °F 38% 30.15 in - Variable 2.3 mph - N/A   Clear
6:00 AM 69.8 °F 44.6 °F 40% 30.18 in - North 2.3 mph - N/A   Clear
6:30 AM 69.8 °F 44.6 °F 40% 30.18 in - North 2.3 mph - N/A   Clear
7:00 AM 68.0 °F 46.4 °F 46% 30.18 in - Variable 2.3 mph - N/A   Clear
7:30 AM 68.0 °F 46.4 °F 46% 30.18 in - North 3.5 mph - N/A   Clear
8:00 AM 70 °F 47 °F 33% 30.12 in 19 mi North 4.6 mph - -   Clear
8:00 AM 71.6 °F 50.0 °F 46% 30.18 in - North 4.6 mph - N/A   Clear
8:30 AM 73.4 °F 50.0 °F 44% 30.18 in - North 3.5 mph - N/A   Clear
9:00 AM 75.2 °F 48.2 °F 38% 30.18 in - North 3.5 mph - N/A   Clear
9:30 AM 78.8 °F 46.4 °F 32% 30.18 in - Variable 2.3 mph - N/A   Clear
10:00 AM 82.4 °F 42.8 °F 25% 30.18 in - East 4.6 mph - N/A   Clear
10:30 AM 82.4 °F 42.8 °F 25% 30.18 in - SSE 6.9 mph - N/A   Clear
11:00 AM 84.2 °F 42.8 °F 23% 30.18 in - SE 5.8 mph - N/A   Clear
11:30 AM 86.0 °F 42.8 °F 22% 30.18 in - SSE 4.6 mph - N/A   Clear
12:00 PM 86.0 °F 41.0 °F 20% 30.18 in - South 6.9 mph - N/A   Clear
12:30 PM 89.6 °F 41.0 °F 18% 30.15 in - SSE 6.9 mph - N/A   Clear
1:00 PM 91.4 °F 42.8 °F 18% 30.15 in - West 4.6 mph - N/A   Clear
1:30 PM 91.4 °F 42.8 °F 18% 30.15 in - SSE 4.6 mph - N/A   Clear
2:00 PM 95 °F 38 °F 7% 29.98 in 11 mi SE 4.6 mph - -   Clear
2:00 PM 93.2 °F 41.0 °F 16% 30.12 in - South 4.6 mph - N/A   Clear
2:30 PM 95.0 °F 41.0 °F 15% 30.12 in - SE 2.3 mph - N/A   Clear
3:00 PM 96.8 °F 41.0 °F 15% 30.12 in - SSE 5.8 mph - N/A   Clear
3:30 PM 98.6 °F 39.2 °F 13% 30.09 in - Variable 6.9 mph - N/A   Clear
4:00 PM 98.6 °F 39.2 °F 13% 30.09 in - NW 2.3 mph - N/A   Clear
4:30 PM 100.4 °F 41.0 °F 13% 30.09 in - NE 2.3 mph - N/A   Clear
5:00 PM 98.6 °F 39.2 °F 13% 30.06 in - West 6.9 mph - N/A   Clear
5:30 PM 98.6 °F 39.2 °F 13% 30.06 in - West 6.9 mph - N/A   Clear
6:00 PM 100.4 °F 41.0 °F 13% 30.06 in - NW 4.6 mph - N/A   Clear
6:30 PM 100.4 °F 41.0 °F 13% 30.04 in - West 5.8 mph - N/A   Clear
7:00 PM 100.4 °F 41.0 °F 13% 30.04 in - South 2.3 mph - N/A   Clear
7:30 PM 100.4 °F 41.0 °F 13% 30.04 in - Variable 3.5 mph - N/A   Clear
8:00 PM 100.4 °F 41.0 °F 13% 30.04 in - East 3.5 mph - N/A   Clear
8:30 PM 98.6 °F 39.2 °F 13% 30.04 in - Variable 2.3 mph - N/A   Clear
9:00 PM 98.6 °F 41.0 °F 14% 30.04 in - Calm Calm - N/A   Clear
9:30 PM 96.8 °F 37.4 °F 13% 30.04 in - NNW 6.9 mph - N/A   Clear
10:00 PM 89.6 °F 41.0 °F 18% 30.04 in - North 3.5 mph - N/A   Clear
10:30 PM 89.6 °F 41.0 °F 18% 30.06 in - North 3.5 mph - N/A   Clear
11:00 PM 86.0 °F 41.0 °F 20% 30.06 in - North 3.5 mph - N/A   Clear
11:30 PM 84.2 °F 41.0 °F 22% 30.06 in - NNW 6.9 mph - N/A   Clear